Time,TemperatureF,DewpointF,PressureIn,WindDirection,WindDirectionDegrees,WindSpeedMPH,WindSpeedGustMPH,Humidity,HourlyPrecipIn,Conditions,Clouds,dailyrainin,SolarRadiationWatts/m^2,SoftwareType,DateUTC
2013-09-07 00:01:00,51.1,42.0,30.13,NE,55,0.0,0.0,71,0.00,,,0.00,0,Wunderground v.1.15,2013-09-07 04:01:00,
2013-09-07 00:03:00,51.1,42.0,30.12,NE,55,0.0,0.0,71,0.00,,,0.00,0,Wunderground v.1.15,2013-09-07 04:03:00,
2013-09-07 00:05:00,51.1,42.0,30.12,NE,55,0.0,0.0,71,0.00,,,0.00,0,Wunderground v.1.15,2013-09-07 04:05:00,
2013-09-07 00:08:00,51.1,42.0,30.12,NE,55,0.0,0.0,71,0.00,,,0.00,0,Wunderground v.1.15,2013-09-07 04:08:00,
2013-09-07 00:10:00,51.1,42.0,30.12,NE,55,0.0,0.0,71,0.00,,,0.00,0,Wunderground v.1.15,2013-09-07 04:10:00,
2013-09-07 00:11:00,51.0,42.3,30.12,NE,55,0.0,0.0,72,0.00,,,0.00,0,Wunderground v.1.15,2013-09-07 04:11:00,
2013-09-07 00:16:00,51.0,42.3,30.12,NE,55,0.0,0.0,72,0.00,,,0.00,0,Wunderground v.1.15,2013-09-07 04:16:00,
2013-09-07 00:22:00,51.1,42.4,30.13,NE,55,0.0,0.0,72,0.00,,,0.00,0,Wunderground v.1.15,2013-09-07 04:22:00,
2013-09-07 00:27:00,51.0,42.3,30.13,NE,55,0.0,0.0,72,0.00,,,0.00,0,Wunderground v.1.15,2013-09-07 04:27:00,
2013-09-07 00:34:00,51.2,42.5,30.13,NE,55,0.0,0.0,72,0.00,,,0.00,0,Wunderground v.1.15,2013-09-07 04:34:00,
2013-09-07 00:39:00,51.2,42.5,30.12,NE,55,0.0,0.0,72,0.00,,,0.00,0,Wunderground v.1.15,2013-09-07 04:39:00,
2013-09-07 00:45:00,51.0,42.3,30.13,NE,55,0.0,0.0,72,0.00,,,0.00,0,Wunderground v.1.15,2013-09-07 04:45:00,
2013-09-07 00:51:00,50.8,42.1,30.13,NE,55,0.0,0.0,72,0.00,,,0.00,0,Wunderground v.1.15,2013-09-07 04:51:00,
2013-09-07 00:56:00,50.4,41.7,30.13,NE,55,0.0,0.0,72,0.00,,,0.00,0,Wunderground v.1.15,2013-09-07 04:56:00,
2013-09-07 01:02:00,50.1,41.4,30.12,NE,55,0.0,0.0,72,0.00,,,0.00,0,Wunderground v.1.15,2013-09-07 05:02:00,
2013-09-07 01:07:00,50.0,41.7,30.13,NE,55,0.0,0.0,73,0.00,,,0.00,0,Wunderground v.1.15,2013-09-07 05:07:00,
2013-09-07 01:14:00,49.7,42.1,30.13,NE,55,0.0,0.0,75,0.00,,,0.00,0,Wunderground v.1.15,2013-09-07 05:14:00,
2013-09-07 01:19:00,49.6,42.0,30.12,NE,55,0.0,0.0,75,0.00,,,0.00,0,Wunderground v.1.15,2013-09-07 05:19:00,
2013-09-07 01:25:00,49.5,42.2,30.12,NE,55,0.0,0.0,76,0.00,,,0.00,0,Wunderground v.1.15,2013-09-07 05:25:00,
2013-09-07 01:30:00,49.3,42.1,30.12,NE,55,0.0,0.0,76,0.00,,,0.00,0,Wunderground v.1.15,2013-09-07 05:30:00,
2013-09-07 01:35:00,49.4,42.1,30.12,NE,55,0.0,0.0,76,0.00,,,0.00,0,Wunderground v.1.15,2013-09-07 05:35:00,
2013-09-07 01:41:00,49.4,42.1,30.12,NE,55,0.0,0.0,76,0.00,,,0.00,0,Wunderground v.1.15,2013-09-07 05:41:00,
2013-09-07 01:47:00,49.4,42.1,30.11,NE,55,0.0,0.0,76,0.00,,,0.00,0,Wunderground v.1.15,2013-09-07 05:47:00,
2013-09-07 01:52:00,49.4,42.1,30.12,NE,55,0.0,0.0,76,0.00,,,0.00,0,Wunderground v.1.15,2013-09-07 05:52:00,
2013-09-07 01:58:00,49.2,42.0,30.12,NE,55,0.0,0.0,76,0.00,,,0.00,0,Wunderground v.1.15,2013-09-07 05:58:00,
2013-09-07 02:03:00,49.2,42.0,30.12,NE,55,0.0,0.0,76,0.00,,,0.00,0,Wunderground v.1.15,2013-09-07 06:03:00,
2013-09-07 02:08:00,49.0,41.8,30.11,NE,55,0.0,0.0,76,0.00,,,0.00,0,Wunderground v.1.15,2013-09-07 06:08:00,
2013-09-07 02:14:00,49.0,41.8,30.11,NE,55,0.0,0.0,76,0.00,,,0.00,0,Wunderground v.1.15,2013-09-07 06:14:00,
2013-09-07 02:19:00,48.8,41.6,30.11,NE,55,0.0,0.0,76,0.00,,,0.00,0,Wunderground v.1.15,2013-09-07 06:19:00,
2013-09-07 02:24:00,48.7,41.5,30.11,NE,55,0.0,0.0,76,0.00,,,0.00,0,Wunderground v.1.15,2013-09-07 06:24:00,
2013-09-07 02:29:00,48.7,42.1,30.11,NE,55,0.0,0.0,78,0.00,,,0.00,0,Wunderground v.1.15,2013-09-07 06:29:00,
2013-09-07 02:34:00,48.7,42.1,30.11,NE,55,0.0,0.0,78,0.00,,,0.00,0,Wunderground v.1.15,2013-09-07 06:34:00,
2013-09-07 02:39:00,48.7,42.1,30.12,NE,55,0.0,0.0,78,0.00,,,0.00,0,Wunderground v.1.15,2013-09-07 06:39:00,
2013-09-07 02:44:00,48.7,42.1,30.12,NE,55,0.0,0.0,78,0.00,,,0.00,0,Wunderground v.1.15,2013-09-07 06:44:00,
2013-09-07 02:49:00,48.6,42.0,30.12,NE,55,0.0,0.0,78,0.00,,,0.00,0,Wunderground v.1.15,2013-09-07 06:49:00,
2013-09-07 02:54:00,48.4,41.9,30.12,NE,55,0.0,0.0,78,0.00,,,0.00,0,Wunderground v.1.15,2013-09-07 06:54:00,
2013-09-07 03:00:00,48.5,42.3,30.12,NE,55,0.0,0.0,79,0.00,,,0.00,0,Wunderground v.1.15,2013-09-07 07:00:00,
2013-09-07 03:05:00,48.6,42.4,30.12,NE,55,0.0,0.0,79,0.00,,,0.00,0,Wunderground v.1.15,2013-09-07 07:05:00,
2013-09-07 03:10:00,48.5,42.3,30.12,NE,55,0.0,0.0,79,0.00,,,0.00,0,Wunderground v.1.15,2013-09-07 07:10:00,
2013-09-07 03:15:00,48.6,42.4,30.12,NE,55,0.0,0.0,79,0.00,,,0.00,0,Wunderground v.1.15,2013-09-07 07:15:00,
2013-09-07 03:20:00,48.6,42.4,30.12,NE,55,0.0,0.0,79,0.00,,,0.00,0,Wunderground v.1.15,2013-09-07 07:20:00,
2013-09-07 03:25:00,48.7,42.5,30.12,NE,55,0.0,0.0,79,0.00,,,0.00,0,Wunderground v.1.15,2013-09-07 07:25:00,
2013-09-07 03:30:00,48.7,42.5,30.12,NE,55,0.0,0.0,79,0.00,,,0.00,0,Wunderground v.1.15,2013-09-07 07:30:00,
2013-09-07 03:35:00,48.7,42.5,30.12,NE,55,0.0,0.0,79,0.00,,,0.00,0,Wunderground v.1.15,2013-09-07 07:35:00,
2013-09-07 03:40:00,48.5,42.3,30.12,NE,55,0.0,0.0,79,0.00,,,0.00,0,Wunderground v.1.15,2013-09-07 07:40:00,
2013-09-07 03:45:00,48.5,42.3,30.12,NE,55,0.0,0.0,79,0.00,,,0.00,0,Wunderground v.1.15,2013-09-07 07:45:00,
2013-09-07 03:50:00,48.3,42.1,30.12,NE,55,0.0,0.0,79,0.00,,,0.00,0,Wunderground v.1.15,2013-09-07 07:50:00,
2013-09-07 03:55:00,48.3,42.1,30.11,NE,55,0.0,0.0,79,0.00,,,0.00,0,Wunderground v.1.15,2013-09-07 07:55:00,
2013-09-07 04:00:00,48.1,41.9,30.11,NE,55,0.0,0.0,79,0.00,,,0.00,0,Wunderground v.1.15,2013-09-07 08:00:00,
2013-09-07 04:05:00,48.1,41.9,30.11,NE,55,0.0,0.0,79,0.00,,,0.00,0,Wunderground v.1.15,2013-09-07 08:05:00,
2013-09-07 04:10:00,48.0,42.1,30.11,NE,55,0.0,0.0,80,0.00,,,0.00,0,Wunderground v.1.15,2013-09-07 08:10:00,
2013-09-07 04:15:00,47.9,41.7,30.11,NE,55,0.0,0.0,79,0.00,,,0.00,0,Wunderground v.1.15,2013-09-07 08:15:00,
2013-09-07 04:20:00,47.9,42.0,30.11,NE,55,0.0,0.0,80,0.00,,,0.00,0,Wunderground v.1.15,2013-09-07 08:20:00,
2013-09-07 04:25:00,47.8,41.9,30.11,NE,55,0.0,0.0,80,0.00,,,0.00,0,Wunderground v.1.15,2013-09-07 08:25:00,
2013-09-07 04:30:00,47.7,41.8,30.11,NE,55,0.0,0.0,80,0.00,,,0.00,0,Wunderground v.1.15,2013-09-07 08:30:00,
2013-09-07 04:35:00,47.5,41.6,30.11,NE,55,0.0,0.0,80,0.00,,,0.00,0,Wunderground v.1.15,2013-09-07 08:35:00,
2013-09-07 04:40:00,47.5,41.6,30.11,NE,55,0.0,0.0,80,0.00,,,0.00,0,Wunderground v.1.15,2013-09-07 08:40:00,
2013-09-07 04:45:00,47.7,41.8,30.11,NE,55,0.0,0.0,80,0.00,,,0.00,0,Wunderground v.1.15,2013-09-07 08:45:00,
2013-09-07 04:51:00,47.6,42.1,30.11,NE,55,0.0,0.0,81,0.00,,,0.00,0,Wunderground v.1.15,2013-09-07 08:51:00,
2013-09-07 04:56:00,47.7,42.2,30.11,NE,55,0.0,0.0,81,0.00,,,0.00,0,Wunderground v.1.15,2013-09-07 08:56:00,
2013-09-07 05:01:00,47.7,42.2,30.11,NE,55,0.0,0.0,81,0.00,,,0.00,0,Wunderground v.1.15,2013-09-07 09:01:00,
2013-09-07 05:06:00,47.6,42.1,30.11,NE,55,0.0,0.0,81,0.00,,,0.00,0,Wunderground v.1.15,2013-09-07 09:06:00,
2013-09-07 05:11:00,47.6,42.1,30.11,NE,55,0.0,0.0,81,0.00,,,0.00,0,Wunderground v.1.15,2013-09-07 09:11:00,
2013-09-07 05:16:00,47.7,42.2,30.11,NE,55,0.0,0.0,81,0.00,,,0.00,0,Wunderground v.1.15,2013-09-07 09:16:00,
2013-09-07 05:21:00,47.7,42.2,30.11,NE,55,0.0,0.0,81,0.00,,,0.00,0,Wunderground v.1.15,2013-09-07 09:21:00,
2013-09-07 05:26:00,47.7,42.2,30.11,NE,55,0.0,0.0,81,0.00,,,0.00,0,Wunderground v.1.15,2013-09-07 09:26:00,
2013-09-07 05:31:00,47.6,42.1,30.11,NE,55,0.0,0.0,81,0.00,,,0.00,0,Wunderground v.1.15,2013-09-07 09:31:00,
2013-09-07 05:36:00,47.4,41.9,30.11,NE,55,0.0,0.0,81,0.00,,,0.00,0,Wunderground v.1.15,2013-09-07 09:36:00,
2013-09-07 05:41:00,47.4,41.9,30.11,NE,55,0.0,0.0,81,0.00,,,0.00,0,Wunderground v.1.15,2013-09-07 09:41:00,
2013-09-07 05:46:00,47.4,41.9,30.11,NE,55,0.0,0.0,81,0.00,,,0.00,0,Wunderground v.1.15,2013-09-07 09:46:00,
2013-09-07 05:51:00,47.3,41.8,30.11,NE,55,0.0,0.0,81,0.00,,,0.00,0,Wunderground v.1.15,2013-09-07 09:51:00,
2013-09-07 05:56:00,47.5,42.0,30.11,NE,55,0.0,0.0,81,0.00,,,0.00,0,Wunderground v.1.15,2013-09-07 09:56:00,
2013-09-07 06:01:00,47.3,41.8,30.11,NE,55,0.0,0.0,81,0.00,,,0.00,0,Wunderground v.1.15,2013-09-07 10:01:00,
2013-09-07 06:06:00,47.3,42.1,30.10,NE,55,0.0,0.0,82,0.00,,,0.00,0,Wunderground v.1.15,2013-09-07 10:06:00,
2013-09-07 06:11:00,47.2,42.0,30.10,NE,55,0.0,0.0,82,0.00,,,0.00,0,Wunderground v.1.15,2013-09-07 10:11:00,
2013-09-07 06:16:00,47.2,41.7,30.10,NE,55,0.0,0.0,81,0.00,,,0.00,0,Wunderground v.1.15,2013-09-07 10:16:00,
2013-09-07 06:21:00,47.2,42.0,30.10,NE,55,0.0,0.0,82,0.00,,,0.00,0,Wunderground v.1.15,2013-09-07 10:21:00,
2013-09-07 06:26:00,47.1,41.9,30.10,NE,55,0.0,0.0,82,0.00,,,0.00,0,Wunderground v.1.15,2013-09-07 10:26:00,
2013-09-07 06:31:00,47.1,41.9,30.10,NE,55,0.0,0.0,82,0.00,,,0.00,0,Wunderground v.1.15,2013-09-07 10:31:00,
2013-09-07 06:36:00,47.1,41.9,30.10,NE,54,0.0,0.0,82,0.00,,,0.00,0,Wunderground v.1.15,2013-09-07 10:36:00,
2013-09-07 06:41:00,47.2,42.0,30.10,NE,55,0.0,0.0,82,0.00,,,0.00,0,Wunderground v.1.15,2013-09-07 10:41:00,
2013-09-07 06:46:00,47.2,42.0,30.10,NE,55,0.0,0.0,82,0.00,,,0.00,0,Wunderground v.1.15,2013-09-07 10:46:00,
2013-09-07 06:51:00,47.4,42.2,30.10,NE,55,0.0,0.0,82,0.00,,,0.00,0,Wunderground v.1.15,2013-09-07 10:51:00,
2013-09-07 06:56:00,47.6,42.4,30.10,NE,55,0.0,0.0,82,0.00,,,0.00,0,Wunderground v.1.15,2013-09-07 10:56:00,
2013-09-07 07:01:00,47.7,42.5,30.10,NE,55,0.0,0.0,82,0.00,,,0.00,0,Wunderground v.1.15,2013-09-07 11:01:00,
2013-09-07 07:06:00,47.7,42.5,30.10,NE,55,0.0,0.0,82,0.00,,,0.00,0,Wunderground v.1.15,2013-09-07 11:06:00,
2013-09-07 07:11:00,47.5,42.3,30.10,NE,55,0.0,0.0,82,0.00,,,0.00,0,Wunderground v.1.15,2013-09-07 11:11:00,
2013-09-07 07:17:00,47.5,42.3,30.11,NE,55,0.0,0.0,82,0.00,,,0.00,0,Wunderground v.1.15,2013-09-07 11:17:00,
2013-09-07 07:22:00,47.6,42.4,30.10,NE,55,0.0,0.0,82,0.00,,,0.00,0,Wunderground v.1.15,2013-09-07 11:22:00,
2013-09-07 07:27:00,47.6,42.7,30.11,NE,55,0.0,0.0,83,0.00,,,0.00,0,Wunderground v.1.15,2013-09-07 11:27:00,
2013-09-07 07:32:00,47.9,43.0,30.11,NE,55,0.0,0.0,83,0.00,,,0.00,0,Wunderground v.1.15,2013-09-07 11:32:00,
2013-09-07 07:37:00,48.5,43.6,30.10,NE,55,0.0,0.0,83,0.00,,,0.00,0,Wunderground v.1.15,2013-09-07 11:37:00,
2013-09-07 07:42:00,48.9,44.0,30.10,NE,55,0.0,0.0,83,0.00,,,0.00,0,Wunderground v.1.15,2013-09-07 11:42:00,
2013-09-07 07:47:00,49.6,44.6,30.10,NE,55,0.0,0.0,83,0.00,,,0.00,0,Wunderground v.1.15,2013-09-07 11:47:00,
2013-09-07 07:52:00,50.0,45.0,30.10,NE,55,0.0,0.0,83,0.00,,,0.00,0,Wunderground v.1.15,2013-09-07 11:52:00,
2013-09-07 07:57:00,50.5,45.5,30.09,NE,55,0.0,0.0,83,0.00,,,0.00,0,Wunderground v.1.15,2013-09-07 11:57:00,
2013-09-07 08:02:00,51.2,46.5,30.09,NE,55,0.0,0.0,84,0.00,,,0.00,0,Wunderground v.1.15,2013-09-07 12:02:00,
2013-09-07 08:07:00,52.0,47.3,30.09,NE,55,0.0,0.0,84,0.00,,,0.00,0,Wunderground v.1.15,2013-09-07 12:07:00,
2013-09-07 08:12:00,52.5,47.8,30.09,NE,55,0.0,0.0,84,0.00,,,0.00,0,Wunderground v.1.15,2013-09-07 12:12:00,
2013-09-07 08:17:00,53.1,48.4,30.09,NE,55,0.0,0.0,84,0.00,,,0.00,0,Wunderground v.1.15,2013-09-07 12:17:00,
2013-09-07 08:22:00,53.9,49.2,30.09,NE,55,0.0,0.0,84,0.00,,,0.00,0,Wunderground v.1.15,2013-09-07 12:22:00,
2013-09-07 08:27:00,54.6,49.9,30.08,NE,55,0.0,0.0,84,0.00,,,0.00,0,Wunderground v.1.15,2013-09-07 12:27:00,
2013-09-07 08:32:00,55.4,50.6,30.09,NE,55,0.0,0.0,84,0.00,,,0.00,0,Wunderground v.1.15,2013-09-07 12:32:00,
2013-09-07 08:37:00,56.4,51.6,30.09,NE,55,0.0,2.0,84,0.00,,,0.00,0,Wunderground v.1.15,2013-09-07 12:37:00,
2013-09-07 08:42:00,57.5,52.4,30.09,NE,55,0.0,2.0,83,0.00,,,0.00,0,Wunderground v.1.15,2013-09-07 12:42:00,
2013-09-07 08:47:00,58.7,53.2,30.09,NE,54,2.0,2.0,82,0.00,,,0.00,0,Wunderground v.1.15,2013-09-07 12:47:00,
2013-09-07 08:52:00,59.5,53.3,30.09,NE,54,1.0,4.0,80,0.00,,,0.00,0,Wunderground v.1.15,2013-09-07 12:52:00,
2013-09-07 08:57:00,60.5,53.6,30.09,NE,53,0.0,4.0,78,0.00,,,0.00,0,Wunderground v.1.15,2013-09-07 12:57:00,
2013-09-07 09:02:00,61.5,53.9,30.09,NE,53,0.0,3.0,76,0.00,,,0.00,0,Wunderground v.1.15,2013-09-07 13:02:00,
2013-09-07 09:07:00,62.2,53.4,30.09,NE,49,2.0,3.0,73,0.00,,,0.00,0,Wunderground v.1.15,2013-09-07 13:07:00,
2013-09-07 09:12:00,62.8,52.9,30.09,North,2,0.0,4.0,70,0.00,,,0.00,0,Wunderground v.1.15,2013-09-07 13:12:00,
2013-09-07 09:17:00,63.4,52.2,30.09,North,356,1.0,5.0,67,0.00,,,0.00,0,Wunderground v.1.15,2013-09-07 13:17:00,
2013-09-07 09:22:00,64.0,52.4,30.09,North,359,1.0,4.0,66,0.00,,,0.00,0,Wunderground v.1.15,2013-09-07 13:22:00,
2013-09-07 09:27:00,64.7,52.2,30.09,North,358,0.0,4.0,64,0.00,,,0.00,0,Wunderground v.1.15,2013-09-07 13:27:00,
2013-09-07 09:32:00,65.1,51.8,30.09,North,358,0.0,2.0,62,0.00,,,0.00,0,Wunderground v.1.15,2013-09-07 13:32:00,
2013-09-07 09:37:00,65.8,52.0,30.09,North,356,0.0,3.0,61,0.00,,,0.00,0,Wunderground v.1.15,2013-09-07 13:37:00,
2013-09-07 09:42:00,66.5,52.2,30.09,North,359,0.0,1.0,60,0.00,,,0.00,0,Wunderground v.1.15,2013-09-07 13:42:00,
2013-09-07 09:47:00,67.1,51.8,30.09,North,359,1.0,4.0,58,0.00,,,0.00,0,Wunderground v.1.15,2013-09-07 13:47:00,
2013-09-07 09:52:00,67.5,51.7,30.09,North,356,1.0,3.0,57,0.00,,,0.00,0,Wunderground v.1.15,2013-09-07 13:52:00,
2013-09-07 09:57:00,67.7,50.9,30.09,North,357,3.0,6.0,55,0.00,,,0.00,0,Wunderground v.1.15,2013-09-07 13:57:00,
2013-09-07 10:02:00,67.7,51.4,30.09,North,352,1.0,4.0,56,0.00,,,0.00,0,Wunderground v.1.15,2013-09-07 14:02:00,
2013-09-07 10:07:00,68.1,51.3,30.09,North,352,1.0,5.0,55,0.00,,,0.00,0,Wunderground v.1.15,2013-09-07 14:07:00,
2013-09-07 10:12:00,68.2,50.9,30.09,North,351,0.0,7.0,54,0.00,,,0.00,0,Wunderground v.1.15,2013-09-07 14:12:00,
2013-09-07 10:18:00,68.6,51.3,30.09,North,351,0.0,7.0,54,0.00,,,0.00,0,Wunderground v.1.15,2013-09-07 14:18:00,
2013-09-07 10:23:00,68.8,50.5,30.08,NNW,346,0.0,5.0,52,0.00,,,0.00,0,Wunderground v.1.15,2013-09-07 14:23:00,
2013-09-07 10:28:00,68.8,49.4,30.09,NNW,338,1.0,11.0,50,0.00,,,0.00,0,Wunderground v.1.15,2013-09-07 14:28:00,
2013-09-07 10:33:00,69.2,48.7,30.08,NNW,337,3.0,5.0,48,0.00,,,0.00,0,Wunderground v.1.15,2013-09-07 14:33:00,
2013-09-07 10:38:00,69.2,47.5,30.09,NNW,337,3.0,7.0,46,0.00,,,0.00,0,Wunderground v.1.15,2013-09-07 14:38:00,
2013-09-07 10:43:00,69.3,48.2,30.08,NNW,331,1.0,8.0,47,0.00,,,0.00,0,Wunderground v.1.15,2013-09-07 14:43:00,
2013-09-07 10:48:00,69.8,48.7,30.08,NNW,331,3.0,8.0,47,0.00,,,0.00,0,Wunderground v.1.15,2013-09-07 14:48:00,
2013-09-07 10:53:00,70.5,48.1,30.08,NW,319,0.0,4.0,45,0.00,,,0.00,0,Wunderground v.1.15,2013-09-07 14:53:00,
2013-09-07 10:58:00,71.1,47.5,30.08,NW,318,2.0,5.0,43,0.00,,,0.00,0,Wunderground v.1.15,2013-09-07 14:58:00,
2013-09-07 11:04:00,71.2,46.9,30.08,NW,319,0.0,7.0,42,0.00,,,0.00,0,Wunderground v.1.15,2013-09-07 15:04:00,
2013-09-07 11:09:00,71.5,46.6,30.08,WNW,303,3.0,7.0,41,0.00,,,0.00,0,Wunderground v.1.15,2013-09-07 15:09:00,
2013-09-07 11:14:00,71.7,46.7,30.08,WNW,303,5.0,5.0,41,0.00,,,0.00,0,Wunderground v.1.15,2013-09-07 15:14:00,
2013-09-07 11:19:00,71.8,46.2,30.08,WNW,286,3.0,7.0,40,0.00,,,0.00,0,Wunderground v.1.15,2013-09-07 15:19:00,
2013-09-07 11:24:00,71.7,46.7,30.07,WNW,283,2.0,6.0,41,0.00,,,0.00,0,Wunderground v.1.15,2013-09-07 15:24:00,
2013-09-07 11:29:00,72.0,45.7,30.08,WNW,285,5.0,6.0,39,0.00,,,0.00,0,Wunderground v.1.15,2013-09-07 15:29:00,
2013-09-07 11:34:00,72.2,46.5,30.07,NW,317,1.0,9.0,40,0.00,,,0.00,0,Wunderground v.1.15,2013-09-07 15:34:00,
2013-09-07 11:39:00,72.2,45.9,30.07,SW,235,5.0,9.0,39,0.00,,,0.00,0,Wunderground v.1.15,2013-09-07 15:39:00,
2013-09-07 11:44:00,72.2,45.9,30.07,NNW,347,4.0,10.0,39,0.00,,,0.00,0,Wunderground v.1.15,2013-09-07 15:44:00,
2013-09-07 11:49:00,72.7,47.6,30.07,NNW,334,3.0,10.0,41,0.00,,,0.00,0,Wunderground v.1.15,2013-09-07 15:49:00,
2013-09-07 11:54:00,72.9,46.5,30.07,North,356,5.0,7.0,39,0.00,,,0.00,0,Wunderground v.1.15,2013-09-07 15:54:00,
2013-09-07 11:59:00,72.9,46.5,30.07,North,7,5.0,11.0,39,0.00,,,0.00,0,Wunderground v.1.15,2013-09-07 15:59:00,
2013-09-07 12:04:00,73.2,46.8,30.06,NNW,330,1.0,9.0,39,0.00,,,0.00,0,Wunderground v.1.15,2013-09-07 16:04:00,
2013-09-07 12:09:00,73.1,46.0,30.06,NW,315,0.0,10.0,38,0.00,,,0.00,0,Wunderground v.1.15,2013-09-07 16:09:00,
2013-09-07 12:15:00,73.6,46.4,30.06,NNW,328,0.0,10.0,38,0.00,,,0.00,0,Wunderground v.1.15,2013-09-07 16:15:00,
2013-09-07 12:20:00,74.0,47.5,30.06,NNW,332,2.0,2.0,39,0.00,,,0.00,0,Wunderground v.1.15,2013-09-07 16:20:00,
2013-09-07 12:24:00,74.4,46.4,30.06,NNW,338,3.0,9.0,37,0.00,,,0.00,0,Wunderground v.1.15,2013-09-07 16:24:00,
2013-09-07 12:29:00,74.5,46.5,30.05,WNW,293,1.0,9.0,37,0.00,,,0.00,0,Wunderground v.1.15,2013-09-07 16:29:00,
2013-09-07 12:34:00,74.9,46.1,30.05,West,261,5.0,7.0,36,0.00,,,0.00,0,Wunderground v.1.15,2013-09-07 16:34:00,
2013-09-07 12:39:00,74.7,45.2,30.05,NNW,347,7.0,9.0,35,0.00,,,0.00,0,Wunderground v.1.15,2013-09-07 16:39:00,
2013-09-07 12:44:00,74.4,45.7,30.05,WNW,284,3.0,9.0,36,0.00,,,0.00,0,Wunderground v.1.15,2013-09-07 16:44:00,
2013-09-07 12:50:00,74.5,45.8,30.05,North,350,4.0,4.0,36,0.00,,,0.00,0,Wunderground v.1.15,2013-09-07 16:50:00,
2013-09-07 12:55:00,75.0,45.5,30.04,NW,307,3.0,6.0,35,0.00,,,0.00,0,Wunderground v.1.15,2013-09-07 16:55:00,
2013-09-07 13:00:00,75.1,45.6,30.04,NNE,21,5.0,7.0,35,0.00,,,0.00,0,Wunderground v.1.15,2013-09-07 17:00:00,
2013-09-07 13:05:00,75.7,45.3,30.04,NW,305,0.0,7.0,34,0.00,,,0.00,0,Wunderground v.1.15,2013-09-07 17:05:00,
2013-09-07 13:10:00,75.7,45.3,30.03,South,190,2.0,4.0,34,0.00,,,0.00,0,Wunderground v.1.15,2013-09-07 17:10:00,
2013-09-07 13:15:00,75.9,46.3,30.03,NNW,328,3.0,5.0,35,0.00,,,0.00,0,Wunderground v.1.15,2013-09-07 17:15:00,
2013-09-07 13:20:00,75.1,44.8,30.03,NW,314,1.0,4.0,34,0.00,,,0.00,0,Wunderground v.1.15,2013-09-07 17:20:00,
2013-09-07 13:25:00,75.3,45.7,30.03,NNW,339,2.0,9.0,35,0.00,,,0.00,0,Wunderground v.1.15,2013-09-07 17:25:00,
2013-09-07 13:30:00,75.8,44.6,30.02,NW,324,1.0,4.0,33,0.00,,,0.00,0,Wunderground v.1.15,2013-09-07 17:30:00,
2013-09-07 13:35:00,76.2,45.8,30.02,South,169,6.0,6.0,34,0.00,,,0.00,0,Wunderground v.1.15,2013-09-07 17:35:00,
2013-09-07 13:40:00,76.4,45.2,30.02,West,270,0.0,1.0,33,0.00,,,0.00,0,Wunderground v.1.15,2013-09-07 17:40:00,
2013-09-07 13:45:00,77.3,45.1,30.02,NNE,14,1.0,5.0,32,0.00,,,0.00,0,Wunderground v.1.15,2013-09-07 17:45:00,
2013-09-07 13:50:00,77.6,45.4,30.01,WNW,287,2.0,4.0,32,0.00,,,0.00,0,Wunderground v.1.15,2013-09-07 17:50:00,
2013-09-07 13:55:00,77.3,45.9,30.01,NW,310,3.0,7.0,33,0.00,,,0.00,0,Wunderground v.1.15,2013-09-07 17:55:00,
2013-09-07 14:00:00,76.6,45.3,30.00,NNW,342,0.0,0.0,33,0.00,,,0.00,0,Wunderground v.1.15,2013-09-07 18:00:00,
2013-09-07 14:05:00,77.3,45.9,30.00,NNE,13,4.0,6.0,33,0.00,,,0.00,0,Wunderground v.1.15,2013-09-07 18:05:00,
2013-09-07 14:10:00,77.5,45.3,30.00,West,280,2.0,2.0,32,0.00,,,0.00,0,Wunderground v.1.15,2013-09-07 18:10:00,
2013-09-07 14:15:00,77.4,45.2,30.00,West,269,0.0,5.0,32,0.00,,,0.00,0,Wunderground v.1.15,2013-09-07 18:15:00,
2013-09-07 14:20:00,78.4,51.4,29.99,SSE,157,0.0,2.0,39,0.00,,,0.00,0,Wunderground v.1.15,2013-09-07 18:20:00,
2013-09-07 14:25:00,78.1,51.1,29.99,SSE,156,10.0,11.0,39,0.00,,,0.00,0,Wunderground v.1.15,2013-09-07 18:25:00,
2013-09-07 14:30:00,76.7,51.2,29.99,South,169,0.0,3.0,41,0.00,,,0.00,0,Wunderground v.1.15,2013-09-07 18:30:00,
2013-09-07 14:35:00,76.4,51.6,29.98,East,86,6.0,14.0,42,0.00,,,0.00,0,Wunderground v.1.15,2013-09-07 18:35:00,
2013-09-07 14:40:00,76.6,51.8,29.98,ESE,120,4.0,6.0,42,0.00,,,0.00,0,Wunderground v.1.15,2013-09-07 18:40:00,
2013-09-07 14:45:00,76.3,50.9,29.98,SE,128,6.0,11.0,41,0.00,,,0.00,0,Wunderground v.1.15,2013-09-07 18:45:00,
2013-09-07 14:50:00,75.7,51.0,29.98,SE,128,4.0,6.0,42,0.00,,,0.00,0,Wunderground v.1.15,2013-09-07 18:50:00,
2013-09-07 14:55:00,76.4,52.2,29.98,ESE,107,3.0,6.0,43,0.00,,,0.00,0,Wunderground v.1.15,2013-09-07 18:55:00,
2013-09-07 15:00:00,76.6,51.8,29.98,SE,144,3.0,3.0,42,0.00,,,0.00,0,Wunderground v.1.15,2013-09-07 19:00:00,
2013-09-07 15:05:00,75.1,51.1,29.98,SE,124,2.0,11.0,43,0.00,,,0.00,0,Wunderground v.1.15,2013-09-07 19:05:00,
2013-09-07 15:10:00,75.0,51.6,29.98,SE,125,1.0,6.0,44,0.00,,,0.00,0,Wunderground v.1.15,2013-09-07 19:10:00,
2013-09-07 15:15:00,74.9,51.5,29.97,SE,137,1.0,11.0,44,0.00,,,0.00,0,Wunderground v.1.15,2013-09-07 19:15:00,
2013-09-07 15:20:00,74.7,51.3,29.97,SSE,161,7.0,11.0,44,0.00,,,0.00,0,Wunderground v.1.15,2013-09-07 19:20:00,
2013-09-07 15:25:00,74.8,51.4,29.97,East,101,2.0,11.0,44,0.00,,,0.00,0,Wunderground v.1.15,2013-09-07 19:25:00,
2013-09-07 15:30:00,74.8,52.0,29.97,South,177,2.0,7.0,45,0.00,,,0.00,0,Wunderground v.1.15,2013-09-07 19:30:00,
2013-09-07 15:35:00,75.3,52.5,29.97,ESE,112,1.0,10.0,45,0.00,,,0.00,0,Wunderground v.1.15,2013-09-07 19:35:00,
2013-09-07 15:40:00,76.0,51.9,29.96,SE,143,6.0,10.0,43,0.00,,,0.00,0,Wunderground v.1.15,2013-09-07 19:40:00,
2013-09-07 15:45:00,75.8,51.7,29.96,SE,140,5.0,11.0,43,0.00,,,0.00,0,Wunderground v.1.15,2013-09-07 19:45:00,
2013-09-07 15:50:00,75.2,51.2,29.95,SSE,158,3.0,10.0,43,0.00,,,0.00,0,Wunderground v.1.15,2013-09-07 19:50:00,
2013-09-07 15:55:00,74.9,52.1,29.95,ENE,78,3.0,10.0,45,0.00,,,0.00,0,Wunderground v.1.15,2013-09-07 19:55:00,
2013-09-07 16:00:00,75.2,52.4,29.95,SE,134,5.0,7.0,45,0.00,,,0.00,0,Wunderground v.1.15,2013-09-07 20:00:00,
2013-09-07 16:05:00,75.3,51.9,29.95,South,184,6.0,10.0,44,0.00,,,0.00,0,Wunderground v.1.15,2013-09-07 20:05:00,
2013-09-07 16:11:00,74.9,52.1,29.95,SSW,196,5.0,6.0,45,0.00,,,0.00,0,Wunderground v.1.15,2013-09-07 20:11:00,
2013-09-07 16:16:00,74.8,52.0,29.95,East,94,5.0,9.0,45,0.00,,,0.00,0,Wunderground v.1.15,2013-09-07 20:16:00,
2013-09-07 16:21:00,74.9,52.7,29.95,SW,231,3.0,10.0,46,0.00,,,0.00,0,Wunderground v.1.15,2013-09-07 20:21:00,
2013-09-07 16:26:00,74.8,52.6,29.95,SE,143,4.0,11.0,46,0.00,,,0.00,0,Wunderground v.1.15,2013-09-07 20:26:00,
2013-09-07 16:31:00,74.8,52.6,29.95,NE,50,4.0,5.0,46,0.00,,,0.00,0,Wunderground v.1.15,2013-09-07 20:31:00,
2013-09-07 16:36:00,75.5,53.3,29.95,ESE,114,4.0,6.0,46,0.00,,,0.00,0,Wunderground v.1.15,2013-09-07 20:36:00,
2013-09-07 16:41:00,76.0,53.1,29.95,South,177,2.0,6.0,45,0.00,,,0.00,0,Wunderground v.1.15,2013-09-07 20:41:00,
2013-09-07 16:46:00,75.4,52.6,29.95,SSE,152,2.0,8.0,45,0.00,,,0.00,0,Wunderground v.1.15,2013-09-07 20:46:00,
2013-09-07 16:51:00,74.7,52.5,29.95,SE,143,5.0,8.0,46,0.00,,,0.00,0,Wunderground v.1.15,2013-09-07 20:51:00,
2013-09-07 16:56:00,74.6,53.0,29.95,SE,140,1.0,8.0,47,0.00,,,0.00,0,Wunderground v.1.15,2013-09-07 20:56:00,
2013-09-07 17:01:00,75.1,53.5,29.95,SSE,148,4.0,4.0,47,0.00,,,0.00,0,Wunderground v.1.15,2013-09-07 21:01:00,
2013-09-07 17:06:00,74.6,52.4,29.95,SE,141,5.0,10.0,46,0.00,,,0.00,0,Wunderground v.1.15,2013-09-07 21:06:00,
2013-09-07 17:11:00,74.3,52.8,29.94,SE,129,3.0,9.0,47,0.00,,,0.00,0,Wunderground v.1.15,2013-09-07 21:11:00,
2013-09-07 17:16:00,74.6,53.0,29.94,ESE,122,2.0,10.0,47,0.00,,,0.00,0,Wunderground v.1.15,2013-09-07 21:16:00,
2013-09-07 17:21:00,74.7,53.1,29.94,ESE,104,0.0,6.0,47,0.00,,,0.00,0,Wunderground v.1.15,2013-09-07 21:21:00,
2013-09-07 17:26:00,74.9,52.7,29.95,SE,143,4.0,8.0,46,0.00,,,0.00,0,Wunderground v.1.15,2013-09-07 21:26:00,
2013-09-07 17:31:00,74.5,52.9,29.94,SE,129,1.0,8.0,47,0.00,,,0.00,0,Wunderground v.1.15,2013-09-07 21:31:00,
2013-09-07 17:36:00,74.4,53.4,29.94,SE,128,6.0,8.0,48,0.00,,,0.00,0,Wunderground v.1.15,2013-09-07 21:36:00,
2013-09-07 17:41:00,74.2,53.2,29.95,SSE,148,3.0,6.0,48,0.00,,,0.00,0,Wunderground v.1.15,2013-09-07 21:41:00,
2013-09-07 17:46:00,73.8,53.4,29.94,South,185,1.0,7.0,49,0.00,,,0.00,0,Wunderground v.1.15,2013-09-07 21:46:00,
2013-09-07 17:51:00,74.1,53.7,29.95,SE,139,8.0,8.0,49,0.00,,,0.00,0,Wunderground v.1.15,2013-09-07 21:51:00,
2013-09-07 17:56:00,73.7,52.8,29.94,ESE,121,4.0,10.0,48,0.00,,,0.00,0,Wunderground v.1.15,2013-09-07 21:56:00,
2013-09-07 18:01:00,73.2,52.9,29.94,SE,137,2.0,6.0,49,0.00,,,0.00,0,Wunderground v.1.15,2013-09-07 22:01:00,
2013-09-07 18:06:00,72.9,52.6,29.94,ESE,119,5.0,8.0,49,0.00,,,0.00,0,Wunderground v.1.15,2013-09-07 22:06:00,
2013-09-07 18:11:00,72.6,52.3,29.94,SE,137,0.0,2.0,49,0.00,,,0.00,0,Wunderground v.1.15,2013-09-07 22:11:00,
2013-09-07 18:16:00,72.5,53.3,29.94,SE,137,0.0,3.0,51,0.00,,,0.00,0,Wunderground v.1.15,2013-09-07 22:16:00,
2013-09-07 18:21:00,72.1,53.0,29.94,SE,137,0.0,2.0,51,0.00,,,0.00,0,Wunderground v.1.15,2013-09-07 22:21:00,
2013-09-07 18:26:00,71.6,52.5,29.94,SE,135,0.0,6.0,51,0.00,,,0.00,0,Wunderground v.1.15,2013-09-07 22:26:00,
2013-09-07 18:31:00,70.8,51.8,29.94,SSW,204,0.0,3.0,51,0.00,,,0.00,0,Wunderground v.1.15,2013-09-07 22:31:00,
2013-09-07 18:36:00,70.4,51.4,29.94,SSE,151,1.0,3.0,51,0.00,,,0.00,0,Wunderground v.1.15,2013-09-07 22:36:00,
2013-09-07 18:42:00,70.2,51.7,29.94,SSE,151,0.0,4.0,52,0.00,,,0.00,0,Wunderground v.1.15,2013-09-07 22:42:00,
2013-09-07 18:47:00,69.9,51.5,29.93,SSE,150,0.0,4.0,52,0.00,,,0.00,0,Wunderground v.1.15,2013-09-07 22:47:00,
2013-09-07 18:52:00,69.6,51.2,29.93,SE,143,0.0,5.0,52,0.00,,,0.00,0,Wunderground v.1.15,2013-09-07 22:52:00,
2013-09-07 18:57:00,69.1,50.7,29.93,SE,146,0.0,5.0,52,0.00,,,0.00,0,Wunderground v.1.15,2013-09-07 22:57:00,
2013-09-07 19:02:00,68.9,51.1,29.93,SE,146,0.0,4.0,53,0.00,,,0.00,0,Wunderground v.1.15,2013-09-07 23:02:00,
2013-09-07 19:07:00,68.8,51.0,29.94,SSE,147,2.0,4.0,53,0.00,,,0.00,0,Wunderground v.1.15,2013-09-07 23:07:00,
2013-09-07 19:12:00,68.5,51.2,29.94,SE,146,0.0,1.0,54,0.00,,,0.00,0,Wunderground v.1.15,2013-09-07 23:12:00,
2013-09-07 19:17:00,68.1,50.8,29.94,SSE,147,0.0,1.0,54,0.00,,,0.00,0,Wunderground v.1.15,2013-09-07 23:17:00,
2013-09-07 19:22:00,67.8,51.0,29.93,SE,146,0.0,0.0,55,0.00,,,0.00,0,Wunderground v.1.15,2013-09-07 23:22:00,
2013-09-07 19:27:00,67.5,51.2,29.93,SSE,147,0.0,1.0,56,0.00,,,0.00,0,Wunderground v.1.15,2013-09-07 23:27:00,
2013-09-07 19:32:00,67.3,51.1,29.94,SSE,147,0.0,0.0,56,0.00,,,0.00,0,Wunderground v.1.15,2013-09-07 23:32:00,
2013-09-07 19:37:00,67.0,50.8,29.93,SSE,147,0.0,0.0,56,0.00,,,0.00,0,Wunderground v.1.15,2013-09-07 23:37:00,
2013-09-07 19:42:00,66.9,51.2,29.93,SE,146,0.0,0.0,57,0.00,,,0.00,0,Wunderground v.1.15,2013-09-07 23:42:00,
2013-09-07 19:47:00,66.5,50.8,29.93,SSE,147,0.0,0.0,57,0.00,,,0.00,0,Wunderground v.1.15,2013-09-07 23:47:00,
2013-09-07 19:52:00,66.1,50.9,29.93,SE,146,0.0,0.0,58,0.00,,,0.00,0,Wunderground v.1.15,2013-09-07 23:52:00,
2013-09-07 19:57:00,65.7,50.5,29.93,SSE,147,0.0,0.0,58,0.00,,,0.00,0,Wunderground v.1.15,2013-09-07 23:57:00,
2013-09-07 20:02:00,65.4,50.7,29.93,SE,146,0.0,0.0,59,0.00,,,0.00,0,Wunderground v.1.15,2013-09-08 00:02:00,
2013-09-07 20:07:00,65.2,51.0,29.93,SSE,147,0.0,0.0,60,0.00,,,0.00,0,Wunderground v.1.15,2013-09-08 00:07:00,
2013-09-07 20:13:00,65.0,50.3,29.93,SE,146,0.0,0.0,59,0.00,,,0.00,0,Wunderground v.1.15,2013-09-08 00:13:00,
2013-09-07 20:18:00,64.7,50.5,29.93,SSE,147,0.0,0.0,60,0.00,,,0.00,0,Wunderground v.1.15,2013-09-08 00:18:00,
2013-09-07 20:23:00,64.4,51.1,29.93,SSE,147,0.0,0.0,62,0.00,,,0.00,0,Wunderground v.1.15,2013-09-08 00:23:00,
2013-09-07 20:28:00,64.3,51.0,29.93,SE,146,0.0,0.0,62,0.00,,,0.00,0,Wunderground v.1.15,2013-09-08 00:28:00,
2013-09-07 20:34:00,64.1,49.5,29.93,SE,146,0.0,0.0,59,0.00,,,0.00,0,Wunderground v.1.15,2013-09-08 00:34:00,
2013-09-07 20:39:00,64.0,49.8,29.93,SE,146,0.0,0.0,60,0.00,,,0.00,0,Wunderground v.1.15,2013-09-08 00:39:00,
2013-09-07 20:44:00,64.0,49.8,29.93,SE,146,0.0,0.0,60,0.00,,,0.00,0,Wunderground v.1.15,2013-09-08 00:44:00,
2013-09-07 20:49:00,64.2,50.0,29.93,SE,146,0.0,3.0,60,0.00,,,0.00,0,Wunderground v.1.15,2013-09-08 00:49:00,
2013-09-07 20:54:00,64.1,49.9,29.93,SE,146,0.0,0.0,60,0.00,,,0.00,0,Wunderground v.1.15,2013-09-08 00:54:00,
2013-09-07 20:59:00,64.3,50.6,29.93,SE,146,0.0,1.0,61,0.00,,,0.00,0,Wunderground v.1.15,2013-09-08 00:59:00,
2013-09-07 21:04:00,64.2,50.9,29.93,SE,145,0.0,3.0,62,0.00,,,0.00,0,Wunderground v.1.15,2013-09-08 01:04:00,
2013-09-07 21:10:00,64.6,51.3,29.93,SE,145,0.0,4.0,62,0.00,,,0.00,0,Wunderground v.1.15,2013-09-08 01:10:00,
2013-09-07 21:15:00,64.9,51.6,29.93,SW,217,0.0,4.0,62,0.00,,,0.00,0,Wunderground v.1.15,2013-09-08 01:15:00,
2013-09-07 21:20:00,65.0,51.7,29.93,SW,216,1.0,1.0,62,0.00,,,0.00,0,Wunderground v.1.15,2013-09-08 01:20:00,
2013-09-07 21:25:00,65.0,51.7,29.93,SW,216,0.0,2.0,62,0.00,,,0.00,0,Wunderground v.1.15,2013-09-08 01:25:00,
2013-09-07 21:30:00,64.8,51.5,29.93,SW,216,0.0,0.0,62,0.00,,,0.00,0,Wunderground v.1.15,2013-09-08 01:30:00,
2013-09-07 21:35:00,64.8,51.5,29.93,SW,235,0.0,4.0,62,0.00,,,0.00,0,Wunderground v.1.15,2013-09-08 01:35:00,
2013-09-07 21:40:00,64.8,51.9,29.93,South,171,2.0,2.0,63,0.00,,,0.00,0,Wunderground v.1.15,2013-09-08 01:40:00,
2013-09-07 21:45:00,64.9,52.0,29.93,SSE,163,1.0,3.0,63,0.00,,,0.00,0,Wunderground v.1.15,2013-09-08 01:45:00,
2013-09-07 21:50:00,65.1,52.2,29.93,SSE,165,1.0,1.0,63,0.00,,,0.00,0,Wunderground v.1.15,2013-09-08 01:50:00,
2013-09-07 21:55:00,65.2,52.3,29.93,SSE,167,0.0,3.0,63,0.00,,,0.00,0,Wunderground v.1.15,2013-09-08 01:55:00,
2013-09-07 22:00:00,65.1,52.2,29.93,SSE,166,1.0,1.0,63,0.00,,,0.00,0,Wunderground v.1.15,2013-09-08 02:00:00,
2013-09-07 22:05:00,65.2,51.8,29.93,ESE,123,0.0,5.0,62,0.00,,,0.00,0,Wunderground v.1.15,2013-09-08 02:05:00,
2013-09-07 22:10:00,65.2,51.8,29.93,WSW,244,0.0,0.0,62,0.00,,,0.00,0,Wunderground v.1.15,2013-09-08 02:10:00,
2013-09-07 22:15:00,65.1,51.8,29.93,SSW,194,0.0,4.0,62,0.00,,,0.00,0,Wunderground v.1.15,2013-09-08 02:15:00,
2013-09-07 22:20:00,64.9,51.6,29.93,SW,228,0.0,0.0,62,0.00,,,0.00,0,Wunderground v.1.15,2013-09-08 02:20:00,
2013-09-07 22:25:00,64.9,52.0,29.93,SSE,164,3.0,7.0,63,0.00,,,0.00,0,Wunderground v.1.15,2013-09-08 02:25:00,
2013-09-07 22:30:00,64.8,51.9,29.93,NNW,329,0.0,0.0,63,0.00,,,0.00,0,Wunderground v.1.15,2013-09-08 02:30:00,
2013-09-07 22:35:00,64.6,51.7,29.93,WSW,245,1.0,4.0,63,0.00,,,0.00,0,Wunderground v.1.15,2013-09-08 02:35:00,
2013-09-07 22:40:00,64.5,51.6,29.92,SW,229,0.0,0.0,63,0.00,,,0.00,0,Wunderground v.1.15,2013-09-08 02:40:00,
2013-09-07 22:45:00,64.4,51.5,29.92,SW,229,2.0,2.0,63,0.00,,,0.00,0,Wunderground v.1.15,2013-09-08 02:45:00,
2013-09-07 22:50:00,64.1,51.2,29.92,SW,226,1.0,1.0,63,0.00,,,0.00,0,Wunderground v.1.15,2013-09-08 02:50:00,
2013-09-07 22:55:00,64.1,51.7,29.92,SW,226,0.0,3.0,64,0.00,,,0.00,0,Wunderground v.1.15,2013-09-08 02:55:00,
2013-09-07 23:00:00,64.0,52.0,29.92,SW,225,0.0,0.0,65,0.00,,,0.00,0,Wunderground v.1.15,2013-09-08 03:00:00,
2013-09-07 23:05:00,63.7,51.3,29.92,SW,226,1.0,1.0,64,0.00,,,0.00,0,Wunderground v.1.15,2013-09-08 03:05:00,
2013-09-07 23:10:00,63.7,51.3,29.92,SW,222,0.0,0.0,64,0.00,,,0.00,0,Wunderground v.1.15,2013-09-08 03:10:00,
2013-09-07 23:15:00,63.7,52.1,29.92,SW,221,0.0,3.0,66,0.00,,,0.00,0,Wunderground v.1.15,2013-09-08 03:15:00,
2013-09-07 23:20:00,63.7,52.1,29.92,SW,218,0.0,0.0,66,0.00,,,0.00,0,Wunderground v.1.15,2013-09-08 03:20:00,
2013-09-07 23:25:00,63.8,52.2,29.92,SW,217,0.0,4.0,66,0.00,,,0.00,0,Wunderground v.1.15,2013-09-08 03:25:00,
2013-09-07 23:30:00,63.9,52.7,29.92,South,179,0.0,3.0,67,0.00,,,0.00,0,Wunderground v.1.15,2013-09-08 03:30:00,
2013-09-07 23:35:00,64.0,52.8,29.92,SSW,208,0.0,4.0,67,0.00,,,0.00,0,Wunderground v.1.15,2013-09-08 03:35:00,
2013-09-07 23:40:00,64.1,52.9,29.92,South,189,0.0,3.0,67,0.00,,,0.00,0,Wunderground v.1.15,2013-09-08 03:40:00,
2013-09-07 23:45:00,64.2,53.0,29.92,SSW,194,0.0,3.0,67,0.00,,,0.00,0,Wunderground v.1.15,2013-09-08 03:45:00,
2013-09-07 23:50:00,64.3,53.1,29.91,SSW,196,3.0,3.0,67,0.00,,,0.00,0,Wunderground v.1.15,2013-09-08 03:50:00,
2013-09-07 23:55:00,64.5,53.3,29.91,South,181,2.0,4.0,67,0.00,,,0.00,0,Wunderground v.1.15,2013-09-08 03:55:00,